RH
35 43 46 61 87 99 97 100 99 99 100 100 100 100 100 98 88 80 71 64 59 48 46 47 44 42 42 44 44 42 40 38
34 47 50 60 74 97 99 98 99 99 100 100 100 100 100 89 80 71 67 62 60 49 50 53 53 46 44 45 46 43 40 38
34 46 54 60 70 91 100 99 98 99 99 97 97 98 100 92 85 81 64 65 64 50 53 57 58 51 50 53 50 47 39 38
35 42 53 61 67 83 100 100 99 98 98 98 97 96 97 97 88 81 80 82 66 60 56 58 57 53 57 63 62 55 48 47
30 38 47 58 61 72 94 99 99 98 98 99 99 97 94 88 85 75 61 78 77 57 60 58 57 55 54 66 66 64 55 50
28 34 41 50 54 71 79 100 100 99 99 99 100 91 86 81 82 74 69 72 70 71 60 61 61 62 59 58 64 70 65 57
25 30 38 44 50 60 80 92 100 100 98 98 97 96 92 87 85 88 73 73 77 75 61 62 68 70 69 66 66 70 73 64
25 30 34 40 48 54 69 78 90 100 100 100 96 89 94 87 84 82 78 81 81 79 73 64 71 76 77 73 76 77 78 74
24 28 33 37 46 52 57 67 71 93 99 99 93 87 89 80 81 77 76 78 80 78 73 70 73 77 79 75 70 74 67 72
22 24 30 36 42 50 54 54 60 71 96 98 96 92 85 78 73 72 71 71 68 73 78 77 75 74 76 75 76 74 70 71
18 22 26 34 39 45 54 51 51 57 69 87 93 91 84 78 71 67 68 65 62 63 73 73 72 72 73 72 71 70 69 69
16 18 21 29 36 41 52 55 47 47 57 69 80 84 84 82 78 72 69 67 65 60 57 62 63 63 65 66 64 64 65 66
15 18 23 27 34 39 46 55 52 47 47 58 67 73 77 77 77 75 72 67 64 62 57 56 59 61 63 64 65 64 66 66
13 16 24 28 32 36 42 51 54 50 48 52 62 66 67 71 75 74 74 72 70 67 64 64 62 64 65 66 67 66 66 66
14 14 15 23 30 34 38 42 50 51 50 51 56 64 67 68 70 72 74 73 73 73 70 67 67 67 66 65 63 63 63 67
20 19 16 15 20 30 34 38 42 50 49 49 52 60 65 67 68 70 71 71 70 69 70 70 70 68 66 65 63 62 65 74
29 29 25 21 19 18 28 34 38 44 50 50 50 55 62 65 66 68 70 71 72 70 69 68 70 70 67 66 66 68 73 76
36 36 34 31 27 23 22 27 36 40 45 50 50 52 57 61 65 65 67 69 69 68 69 69 68 67 66 66 68 72 77 84
37 36 36 36 34 30 27 21 27 34 40 45 48 50 53 56 60 62 63 64 66 67 68 69 69 68 67 68 73 77 84 88
Wind_Speed
14 11 10 12 14 17 14 14 18 21 23 24 25 31 32 31 24 23 26 25 26 21 16 15 19 18 18 17 17 17 17 17
14 14 12 14 15 16 18 20 22 25 26 26 27 27 29 30 23 24 25 23 22 23 18 15 19 17 17 17 17 16 16 15
13 17 16 16 17 17 21 22 27 26 26 26 29 28 25 30 26 23 25 17 18 24 18 20 23 18 17 19 18 17 16 16
15 16 19 17 20 21 21 26 29 24 26 23 25 24 25 20 25 26 23 18 21 22 21 25 25 20 22 21 20 18 17 17
16 17 19 21 20 20 21 25 29 26 30 26 29 27 28 30 32 31 30 19 18 26 27 24 23 24 20 22 22 20 17 18
17 19 22 22 22 23 23 24 28 28 29 31 27 27 31 32 28 30 31 25 29 28 30 27 24 24 23 22 23 23 22 19
16 20 22 22 22 24 24 26 28 30 30 32 32 27 28 28 31 31 31 30 31 38 31 28 27 25 24 24 25 24 24 22
14 18 18 23 25 26 26 27 28 31 33 33 34 33 33 32 34 37 37 27 27 30 31 30 27 28 28 28 26 27 26 23
13 18 17 24 27 29 29 30 28 31 34 34 34 34 33 34 35 35 36 36 35 34 32 33 32 29 29 30 29 29 31 24
11 15 20 25 28 30 30 30 29 31 32 33 33 34 33 34 33 35 38 38 36 34 35 35 34 32 30 29 27 27 25 25
12 12 15 26 28 29 30 29 31 31 32 33 34 36 36 34 34 35 36 37 37 37 38 37 35 33 32 31 29 28 28 27
7 7 13 23 26 29 30 30 30 31 33 33 35 37 37 38 37 38 37 36 40 40 39 39 39 37 36 35 34 34 33 32
5 3 7 15 23 26 29 30 32 32 32 33 35 35 38 38 41 39 40 38 37 37 39 35 37 38 38 37 36 35 35 36
9 1 5 10 18 25 28 30 33 33 32 33 33 35 36 39 42 42 38 39 38 38 37 37 40 38 37 38 39 38 38 37
12 12 5 9 16 23 28 30 31 31 33 33 35 37 40 40 38 38 39 39 38 39 39 40 40 39 40 40 39 39 38 36
16 17 14 13 13 20 25 29 31 33 34 36 39 40 38 36 36 37 37 37 39 38 37 39 39 40 40 39 38 39 36 34
17 18 20 17 21 15 21 26 29 31 33 35 36 33 35 37 36 36 35 36 36 35 37 37 37 38 39 40 39 32 32 33
18 18 16 19 23 22 16 22 25 29 32 35 34 34 35 37 36 35 37 37 34 36 36 35 36 35 35 38 36 37 30 30
18 16 18 23 26 27 26 21 24 28 32 32 33 33 34 33 33 36 35 35 35 34 33 33 32 31 32 33 36 39 36 34
Wind_Direction
193 193 190 184 175 173 176 166 170 170 165 149 136 135 148 163 157 168 161 172 173 162 166 163 173 174 177 182 186 189 189 189
176 179 190 183 183 177 175 169 168 164 159 153 150 156 166 168 168 171 165 171 180 158 169 182 186 184 186 187 188 188 192 191
180 178 188 193 186 175 173 171 172 172 167 170 167 165 165 176 170 167 174 184 183 174 173 193 202 192 195 190 191 189 193 191
187 185 185 195 188 182 177 178 178 175 174 167 167 174 178 183 190 179 177 192 196 186 189 197 203 199 196 196 197 199 195 196
191 189 191 190 196 183 180 181 183 181 176 175 169 169 176 190 191 194 198 207 201 194 209 208 201 210 207 202 204 206 214 199
197 189 192 190 187 183 185 180 182 185 185 180 177 185 188 189 189 197 206 211 215 209 217 209 210 211 215 213 209 211 215 224
198 188 189 189 184 180 182 183 184 186 188 191 187 184 186 185 192 199 208 211 210 211 214 210 213 216 216 218 217 216 222 222
196 189 189 186 185 184 183 188 189 189 191 193 195 199 192 195 197 200 208 211 209 212 214 212 211 217 220 222 225 221 221 228
201 196 192 192 189 190 187 188 194 190 194 197 198 202 199 204 202 206 208 212 211 207 209 211 211 213 218 222 223 230 229 225
206 201 197 198 195 194 194 190 194 195 195 199 200 204 204 206 208 208 213 215 215 218 215 213 213 214 214 217 218 224 224 223
195 212 205 202 200 198 197 198 195 195 198 200 203 206 208 212 214 213 215 217 218 218 217 217 217 218 220 222 226 230 232 232
309 231 218 205 205 202 199 202 201 200 197 198 204 208 209 213 216 219 218 216 218 221 220 220 222 224 227 228 232 236 237 238
10 310 230 207 208 208 204 204 206 206 202 200 202 204 207 212 216 218 219 221 222 222 225 226 227 230 232 233 234 236 239 241
329 248 219 215 214 215 214 211 211 208 207 205 205 207 209 211 214 217 218 220 222 225 226 226 229 230 233 234 236 239 242 245
325 321 259 219 219 218 220 219 215 214 210 210 210 210 212 216 216 216 217 219 221 223 226 229 231 233 233 234 236 241 244 246
339 331 329 324 223 230 224 224 216 214 216 214 216 213 214 217 219 219 220 220 221 221 223 227 230 232 234 233 232 234 235 237
341 334 331 327 317 261 234 232 224 215 219 222 221 217 214 217 218 218 219 221 223 222 223 225 228 229 232 232 230 232 232 232
333 328 324 318 311 314 271 253 231 225 220 225 224 219 217 218 216 216 217 219 219 223 225 224 228 231 231 230 229 228 233 230
328 331 332 324 315 308 298 279 255 232 227 225 224 220 221 217 216 218 219 217 217 219 223 225 228 232 235 235 231 229 229 235